Location: Lincolnton
(35.4660°N, 81.2500°W)
Time: 21:29:54
(UTC-04:00)

Hubble Space Telescope - Visible Passes

Search period start: 29 September 2016 00:00
Search period end: 09 October 2016 00:00
Orbit: 539 x 542 km, 28.5° (Epoch: 28 September)

Date Brightness Start Highest point End Pass type
(mag) Time Alt. Az. Time Alt. Az. Time Alt. Az.
05 Oct 3.1 19:37:39 10° SSE 19:38:23 10° SSE 19:39:08 10° SSE visible
05 Oct 3.3 21:15:38 10° SW 21:16:23 14° SW 21:16:23 14° SW visible
06 Oct 3.0 19:26:31 10° S 19:28:27 13° SSE 19:30:23 10° SE visible
06 Oct 2.9 21:05:37 10° SW 21:07:14 19° SSW 21:07:14 19° SSW visible
07 Oct 2.5 20:55:39 10° SW 20:58:01 24° SSW 20:58:01 24° SSW visible
08 Oct 2.1 20:45:43 10° WSW 20:48:47 29° SSW 20:48:47 29° SSW visible
